Date String (YYYY-MM-DD hh:mm:ss) UTC,Instrument flags,Ambient pressure (hPa),Sample flow (lpm),Bypass flow (lpm),Sample temperature (°C),Ambient temperature (°C),ASC tube jacket temperature (°C),LED temperature (°C),Box temperature (°C),Sample RH (%),Span deviation,Mass concentration (μg/m³),Mass concentration (μg/m³),Mass concentration (μg/m³)
DateTimeUTC,F1_M11,P_M11,Q1_M11,Q2_M11,T1_M11,T2_M11,T3_M11,T4_M11,T5_M11,U1_M11,ZSPAN_M11,X0_M11,X2_M11,X1_M11
2023-02-01 13:00:00,,0825.1,4.98,0.00,22.6,21.1,00.0,31.4,24.2,07.0,0000.0,0008.84,0004.45,0003.96
2023-02-01 13:01:00,,0825.1,5.01,0.00,22.5,20.9,00.0,31.4,24.2,07.0,0000.0,0008.85,0004.46,0003.98
2023-02-01 13:02:00,,0825.1,5.01,0.00,22.5,20.8,00.0,31.4,24.2,07.0,0000.0,0008.81,0004.49,0004.01
2023-02-01 13:03:00,,0825.0,4.95,0.00,22.5,20.8,00.0,31.4,24.1,07.0,0000.0,0008.93,0004.57,0004.07
2023-02-01 13:04:00,,0825.0,4.97,0.00,22.4,20.7,00.0,31.4,24.1,07.0,0000.0,0009.12,0004.70,0004.19
2023-02-01 13:05:00,,0825.1,4.99,0.00,22.4,20.7,00.0,31.4,24.1,07.0,0000.0,0009.18,0004.77,0004.29
2023-02-01 13:06:00,,0825.1,4.96,0.00,22.4,20.7,00.0,31.3,24.0,07.1,0000.0,0009.30,0004.76,0004.30
2023-02-01 13:07:00,,0825.1,5.01,0.00,22.4,21.6,00.0,31.3,24.3,07.0,0000.0,0009.16,0004.59,0004.16
2023-02-01 13:08:00,,0825.2,4.99,0.00,22.6,22.6,00.0,31.3,24.5,06.9,0000.0,0008.73,0004.43,0004.02
2023-02-01 13:09:00,,0825.2,4.99,0.00,22.7,23.0,00.0,31.3,24.7,06.9,0000.0,0008.30,0004.32,0003.89
2023-02-01 13:10:00,,0825.2,5.01,0.00,22.7,22.5,00.0,31.4,24.6,06.9,0000.0,0008.40,0004.21,0003.80
2023-02-01 13:11:00,,0825.2,4.99,0.00,22.7,22.0,00.0,31.4,24.5,06.9,0000.0,0008.29,0004.13,0003.74
2023-02-01 13:12:00,,0825.2,5.01,0.00,22.6,21.7,00.0,31.4,24.4,06.9,0000.0,0008.21,0004.07,0003.67
2023-02-01 13:13:00,,0825.2,4.95,0.00,22.6,21.5,00.0,31.4,24.3,06.9,0000.0,0008.18,0004.03,0003.62
2023-02-01 13:14:00,,0825.2,5.04,0.00,22.6,21.3,00.0,31.4,24.2,07.0,0000.0,0008.08,0003.97,0003.60
2023-02-01 13:15:00,,0825.2,4.94,0.00,22.6,21.1,00.0,31.4,24.2,07.0,0000.0,0007.95,0003.89,0003.54
2023-02-01 13:16:00,,0825.2,5.01,0.00,22.5,21.0,00.0,31.4,24.2,06.9,0000.0,0008.01,0003.85,0003.46
2023-02-01 13:17:00,,0825.2,4.96,0.00,22.5,20.9,00.0,31.4,24.2,06.9,0000.0,0007.80,0003.78,0003.39
2023-02-01 13:18:00,,0825.2,5.02,0.00,22.4,20.8,00.0,31.4,24.1,06.9,0000.0,0007.56,0003.74,0003.36
2023-02-01 13:19:00,,0825.2,4.98,0.00,22.4,20.7,00.0,31.4,24.1,06.9,0000.0,0007.57,0003.68,0003.30
2023-02-01 13:20:00,,0825.1,4.94,0.00,22.4,20.6,00.0,31.4,24.0,06.9,0000.0,0007.52,0003.66,0003.27
2023-02-01 13:21:00,,0825.1,5.02,0.00,22.4,21.1,00.0,31.3,24.1,07.0,0000.0,0007.05,0003.65,0003.26
2023-02-01 13:22:00,,0825.1,5.03,0.00,22.5,22.2,00.0,31.3,24.4,07.0,0000.0,0007.34,0003.70,0003.31
2023-02-01 13:23:00,,0825.1,4.99,0.00,22.6,23.0,00.0,31.3,24.6,06.9,0000.0,0007.58,0003.71,0003.32
2023-02-01 13:24:00,,0825.1,4.99,0.00,22.7,22.7,00.0,31.4,24.6,06.8,0000.0,0007.46,0003.66,0003.30
2023-02-01 13:25:00,,0825.1,4.99,0.00,22.6,22.1,00.0,31.4,24.4,06.7,0000.0,0007.40,0003.66,0003.28
2023-02-01 13:26:00,,0825.0,5.02,0.00,22.6,21.7,00.0,31.4,24.3,06.8,0000.0,0007.29,0003.60,0003.22
2023-02-01 13:27:00,,0825.0,5.01,0.00,22.6,21.3,00.0,31.4,24.2,06.9,0000.0,0006.83,0003.47,0003.12
2023-02-01 13:28:00,,0825.0,5.04,0.00,22.5,21.1,00.0,31.4,24.1,06.9,0000.0,0006.36,0003.35,0002.95
2023-02-01 13:29:00,,0825.0,5.06,0.00,22.5,20.9,00.0,31.4,24.1,06.9,0000.0,0005.96,0003.22,0002.74
2023-02-01 13:30:00,,0825.0,5.07,0.00,22.4,20.8,00.0,31.4,24.1,06.9,0000.0,0005.57,0003.13,0002.58
2023-02-01 13:31:00,,0825.0,4.94,0.00,22.4,20.8,00.0,31.4,24.0,06.9,0000.0,0005.85,0003.00,0002.45
2023-02-01 13:32:00,,0825.1,5.05,0.00,22.4,20.6,00.0,31.4,24.0,06.9,0000.0,0005.53,0002.80,0002.29
2023-02-01 13:33:00,,0825.1,5.08,0.00,22.3,20.6,00.0,31.3,23.9,06.9,0000.0,0005.01,0002.63,0002.10
2023-02-01 13:34:00,,0825.1,5.02,0.00,22.3,21.2,00.0,31.3,24.1,07.0,0000.0,0004.53,0002.51,0001.97
2023-02-01 13:35:00,,0825.2,5.02,0.00,22.5,22.3,00.0,31.3,24.3,07.0,0000.0,0004.50,0002.44,0001.90
2023-02-01 13:36:00,,0825.2,4.95,0.00,22.6,22.9,00.0,31.3,24.6,07.0,0000.0,0004.29,0002.25,0001.73
2023-02-01 13:37:00,,0825.2,4.99,0.00,22.6,22.5,00.0,31.3,24.5,07.1,0000.0,0004.18,0002.14,0001.62
2023-02-01 13:38:00,,0825.1,5.00,0.00,22.6,22.0,00.0,31.3,24.4,07.1,0000.0,0004.15,0002.09,0001.56
2023-02-01 13:39:00,,0825.2,4.98,0.00,22.6,21.6,00.0,31.4,24.2,07.1,0000.0,0004.20,0002.07,0001.52
2023-02-01 13:40:00,,0825.2,4.89,0.00,22.5,21.3,00.0,31.4,24.2,07.1,0000.0,0004.27,0002.09,0001.50
2023-02-01 13:41:00,,0825.2,4.94,0.00,22.5,21.1,00.0,31.4,24.1,07.1,0000.0,0004.28,0002.05,0001.47
2023-02-01 13:42:00,,0825.2,4.91,0.00,22.5,21.0,00.0,31.4,24.1,07.1,0000.0,0003.58,0001.96,0001.41
2023-02-01 13:43:00,,0825.2,4.98,0.00,22.4,20.9,00.0,31.3,24.1,07.1,0000.0,0003.37,0001.92,0001.36
2023-02-01 13:44:00,,0825.2,4.90,0.00,22.4,20.8,00.0,31.3,24.1,07.1,0000.0,0003.22,0001.84,0001.32
2023-02-01 13:45:00,,0825.2,4.98,0.00,22.4,20.7,00.0,31.3,24.1,07.0,0000.0,0003.19,0001.80,0001.29
2023-02-01 13:46:00,,0825.3,5.05,0.00,22.4,20.7,00.0,31.3,24.0,07.0,0000.0,0003.14,0001.75,0001.24
2023-02-01 13:47:00,,0825.3,5.04,0.00,22.4,20.7,00.0,31.3,24.0,07.1,0000.0,0003.04,0001.70,0001.22
2023-02-01 13:48:00,,0825.3,4.96,0.00,22.4,21.5,00.0,31.3,24.2,07.1,0000.0,0003.03,0001.68,0001.21
2023-02-01 13:49:00,,0825.4,4.98,0.00,22.5,22.6,00.0,31.3,24.5,07.1,0000.0,0003.08,0001.68,0001.22
2023-02-01 13:50:00,,0825.3,4.98,0.00,22.6,23.2,00.0,31.3,24.7,07.0,0000.0,0003.23,0001.75,0001.24
2023-02-01 13:51:00,,0825.3,5.01,0.00,22.7,22.7,00.0,31.3,24.6,07.0,0000.0,0003.35,0001.82,0001.26
2023-02-01 13:52:00,,0825.3,5.01,0.00,22.7,22.3,00.0,31.4,24.5,07.0,0000.0,0003.33,0001.84,0001.27
2023-02-01 13:53:00,,0825.3,5.01,0.00,22.7,21.9,00.0,31.4,24.5,06.9,0000.0,0003.33,0001.86,0001.28
2023-02-01 13:54:00,,0825.3,5.01,0.00,22.6,21.6,00.0,31.4,24.4,07.0,0000.0,0003.33,0001.87,0001.29
2023-02-01 13:55:00,,0825.3,5.00,0.00,22.6,21.4,00.0,31.4,24.3,07.0,0000.0,0003.36,0001.89,0001.30
2023-02-01 13:56:00,,0825.4,4.97,0.00,22.6,21.2,00.0,31.4,24.3,07.0,0000.0,0003.33,0001.91,0001.33
2023-02-01 13:57:00,,0825.4,5.05,0.00,22.6,21.1,00.0,31.4,24.3,07.0,0000.0,0003.60,0001.93,0001.35
2023-02-01 13:58:00,,0825.3,5.01,0.00,22.5,20.9,00.0,31.4,24.2,07.0,0000.0,0003.69,0001.95,0001.36
2023-02-01 13:59:00,,0825.4,5.03,0.00,22.5,20.8,00.0,31.4,24.2,07.0,0000.0,0003.75,0001.98,0001.35
